Temp
-7 -7 -7 -7 -7 -8 -8 -8 -7 -8 -9 -9 -8 -8 -8 -7 -6 -6 -6 -6 -6 -7 -7 -6 -7 -7 -7 -7 -7 -7 -7 -7 -7 -7 -7 -7 -7 -8 -8 -8 -8 -7 -7 -6 -6 -6 -6 -6 -6
-7 -7 -7 -7 -7 -8 -7 -7 -6 -8 -9 -8 -9 -8 -7 -7 -7 -7 -6 -6 -7 -7 -7 -7 -7 -7 -7 -7 -7 -7 -7 -7 -7 -7 -7 -8 -8 -8 -8 -8 -8 -8 -7 -7 -7 -6 -6 -6 -7
-7 -7 -7 -8 -8 -8 -6 -6 -8 -8 -8 -8 -9 -9 -8 -8 -8 -7 -6 -7 -7 -7 -7 -7 -7 -7 -7 -7 -7 -7 -7 -8 -8 -8 -9 -9 -9 -9 -9 -8 -8 -8 -7 -7 -7 -7 -7 -7 -7
-7 -7 -8 -8 -7 -6 -7 -8 -8 -8 -9 -9 -8 -9 -8 -9 -8 -8 -7 -7 -7 -7 -7 -7 -7 -7 -7 -7 -7 -8 -8 -8 -8 -9 -9 -9 -9 -9 -8 -8 -8 -8 -7 -7 -7 -7 -7 -7 -8
-7 -8 -8 -8 -8 -9 -8 -8 -8 -9 -9 -9 -8 -8 -8 -9 -9 -8 -8 -8 -7 -7 -7 -7 -8 -8 -8 -8 -8 -8 -8 -8 -9 -9 -9 -9 -9 -9 -9 -8 -8 -8 -7 -7 -7 -7 -7 -8 -8
-7 -8 -9 -9 -8 -8 -9 -9 -9 -9 -10 -9 -8 -8 -9 -9 -8 -8 -7 -8 -8 -7 -8 -8 -8 -8 -8 -8 -9 -9 -9 -9 -9 -9 -9 -9 -9 -9 -9 -9 -9 -9 -8 -7 -7 -8 -8 -8 -8
-8 -9 -9 -9 -8 -8 -9 -9 -10 -10 -10 -9 -8 -8 -10 -10 -9 -9 -8 -8 -8 -8 -8 -8 -9 -9 -9 -9 -9 -9 -10 -9 -9 -9 -10 -10 -10 -10 -9 -9 -9 -9 -9 -8 -8 -8 -8 -8 -9
-9 -8 -8 -9 -8 -8 -8 -10 -10 -10 -10 -9 -8 -9 -10 -10 -10 -9 -9 -8 -8 -8 -8 -9 -9 -9 -9 -9 -9 -9 -9 -10 -10 -10 -10 -10 -10 -10 -10 -10 -9 -9 -9 -8 -8 -8 -8 -8 -9
-8 -8 -8 -8 -7 -7 -8 -10 -10 -11 -11 -10 -9 -7 -8 -9 -10 -10 -10 -9 -8 -9 -9 -9 -9 -9 -9 -9 -10 -10 -10 -11 -11 -11 -10 -10 -10 -10 -10 -9 -9 -10 -10 -9 -8 -8 -8 -8 -9
-7 -7 -7 -7 -7 -7 -8 -10 -11 -10 -11 -10 -9 -9 -10 -10 -10 -10 -10 -9 -8 -9 -10 -10 -10 -10 -10 -10 -10 -11 -10 -10 -11 -11 -11 -11 -10 -10 -11 -10 -10 -9 -9 -9 -9 -9 -9 -9 -9
-6 -7 -7 -7 -7 -7 -9 -10 -11 -11 -11 -10 -10 -10 -9 -11 -11 -11 -10 -9 -9 -10 -11 -11 -11 -11 -11 -11 -11 -11 -11 -11 -11 -11 -11 -11 -11 -11 -11 -11 -11 -10 -9 -9 -9 -10 -9 -9 -9
-6 -7 -7 -7 -8 -9 -10 -11 -11 -11 -11 -11 -11 -10 -10 -10 -11 -11 -11 -9 -9 -11 -12 -12 -12 -12 -12 -12 -12 -12 -12 -12 -12 -12 -11 -11 -11 -11 -11 -11 -11 -11 -10 -9 -9 -9 -9 -9 -9
-6 -6 -7 -9 -8 -9 -10 -11 -11 -11 -10 -10 -10 -10 -9 -10 -10 -11 -11 -10 -10 -11 -12 -12 -12 -12 -12 -12 -12 -12 -12 -12 -12 -12 -11 -11 -11 -11 -10 -10 -11 -10 -10 -9 -9 -9 -10 -10 -10
-7 -7 -9 -8 -7 -9 -9 -9 -10 -9 -9 -10 -10 -10 -10 -10 -10 -11 -12 -11 -11 -11 -12 -13 -13 -12 -12 -12 -12 -12 -12 -12 -11 -12 -11 -11 -11 -10 -10 -10 -10 -10 -10 -10 -9 -9 -10 -10 -9
-8 -8 -8 -8 -8 -8 -8 -9 -8 -8 -9 -9 -10 -11 -10 -11 -11 -11 -11 -12 -11 -12 -12 -12 -12 -12 -12 -13 -12 -12 -12 -12 -12 -11 -11 -11 -10 -9 -9 -9 -9 -10 -10 -10 -10 -10 -10 -10 -10
-7 -7 -8 -8 -7 -8 -9 -10 -9 -9 -10 -10 -11 -11 -11 -11 -11 -11 -11 -11 -11 -11 -11 -12 -12 -12 -12 -12 -12 -12 -12 -12 -12 -11 -11 -11 -10 -9 -9 -9 -9 -9 -10 -11 -11 -11 -11 -11 -10
-7 -8 -7 -8 -8 -10 -10 -10 -10 -10 -10 -11 -11 -11 -11 -12 -11 -11 -11 -11 -10 -11 -12 -12 -12 -12 -12 -11 -12 -12 -12 -12 -11 -11 -11 -11 -10 -10 -9 -10 -10 -9 -10 -11 -11 -11 -11 -11 -11
-8 -8 -8 -8 -9 -10 -10 -10 -10 -10 -11 -10 -11 -11 -11 -11 -11 -11 -11 -11 -10 -11 -11 -12 -11 -11 -11 -11 -11 -11 -11 -11 -11 -11 -11 -11 -10 -10 -10 -9 -9 -9 -9 -10 -11 -11 -11 -11 -11
-8 -8 -8 -8 -8 -9 -10 -10 -10 -10 -10 -10 -11 -11 -11 -11 -11 -10 -11 -11 -10 -11 -11 -11 -11 -11 -11 -10 -11 -11 -11 -11 -11 -11 -10 -10 -10 -10 -10 -10 -10 -10 -9 -9 -10 -11 -11 -11 -12
-8 -8 -9 -8 -8 -10 -10 -10 -10 -10 -10 -11 -11 -11 -10 -10 -10 -10 -11 -11 -10 -11 -11 -11 -11 -11 -11 -10 -11 -11 -11 -12 -11 -11 -10 -11 -10 -10 -10 -10 -10 -10 -9 -10 -10 -11 -11 -12 -12
-8 -8 -10 -9 -10 -10 -10 -10 -10 -10 -9 -10 -11 -10 -9 -9 -9 -9 -10 -10 -11 -11 -11 -11 -11 -11 -11 -11 -11 -11 -11 -11 -11 -11 -11 -10 -10 -10 -10 -10 -10 -10 -10 -10 -10 -11 -11 -12 -12
-9 -9 -10 -10 -9 -10 -9 -9 -10 -10 -11 -11 -11 -11 -9 -9 -9 -9 -10 -10 -10 -11 -11 -11 -11 -11 -11 -11 -11 -11 -11 -11 -11 -11 -10 -10 -10 -10 -10 -10 -10 -10 -10 -10 -11 -11 -11 -11 -11
-9 -9 -10 -10 -10 -9 -9 -9 -10 -10 -10 -10 -11 -10 -10 -9 -9 -9 -9 -9 -10 -10 -11 -11 -11 -10 -10 -11 -11 -11 -10 -10 -10 -10 -10 -10 -10 -10 -10 -10 -10 -10 -10 -11 -11 -11 -11 -11 -11
-9 -9 -10 -10 -10 -10 -10 -9 -9 -9 -10 -11 -11 -11 -10 -10 -9 -9 -9 -10 -10 -10 -10 -10 -10 -11 -11 -11 -10 -10 -10 -10 -10 -10 -10 -10 -10 -10 -10 -10 -10 -11 -11 -11 -11 -11 -11 -11 -11
-9 -9 -9 -9 -9 -10 -11 -10 -9 -9 -10 -10 -10 -10 -11 -10 -10 -9 -10 -10 -10 -10 -10 -10 -10 -10 -10 -10 -10 -10 -10 -10 -10 -10 -10 -10 -10 -10 -10 -11 -11 -11 -11 -11 -11 -12 -12 -12 -12
-9 -9 -9 -8 -9 -10 -10 -10 -9 -10 -10 -10 -10 -10 -10 -10 -10 -10 -10 -11 -11 -11 -11 -10 -10 -11 -11 -11 -11 -11 -10 -10 -10 -10 -10 -10 -10 -11 -11 -11 -11 -11 -11 -11 -11 -12 -12 -12 -12
-9 -9 -9 -9 -9 -10 -10 -9 -9 -10 -10 -10 -10 -10 -10 -9 -9 -9 -10 -10 -10 -11 -11 -11 -11 -12 -11 -11 -11 -11 -11 -11 -11 -11 -11 -11 -11 -11 -11 -11 -11 -11 -11 -11 -12 -12 -12 -12 -12
-10 -10 -9 -9 -9 -10 -10 -10 -9 -9 -10 -9 -9 -9 -9 -9 -9 -9 -9 -10 -10 -11 -11 -12 -13 -13 -12 -12 -12 -12 -12 -11 -11 -11 -11 -11 -11 -11 -11 -11 -11 -12 -12 -12 -12 -12 -12 -12 -12
-9 -10 -9 -9 -9 -10 -10 -11 -10 -11 -10 -10 -10 -10 -10 -10 -10 -10 -10 -10 -10 -11 -11 -11 -12 -12 -13 -13 -12 -12 -12 -11 -11 -12 -12 -12 -12 -12 -12 -12 -12 -12 -12 -12 -12 -13 -13 -13 -13
-10 -10 -10 -10 -10 -10 -10 -11 -11 -11 -11 -11 -11 -11 -11 -11 -11 -11 -11 -11 -11 -11 -11 -11 -12 -12 -12 -13 -13 -13 -12 -12 -12 -12 -12 -12 -12 -12 -12 -12 -12 -12 -13 -13 -13 -13 -13 -13 -13
Height
5897 5897 5896 5897 5898 5894 5893 5895 5897 5894 5892 5892 5889 5887 5887 5888 5886 5886 5884 5881 5881 5881 5882 5881 5882 5883 5884 5884 5884 5885 5885 5885 5885 5884 5883 5882 5881 5879 5878 5876 5875 5873 5871 5868 5867 5867 5868 5870 5872
5897 5897 5896 5896 5896 5893 5895 5897 5897 5894 5893 5891 5890 5889 5888 5888 5887 5884 5883 5882 5882 5882 5882 5882 5882 5883 5883 5883 5883 5883 5884 5884 5884 5883 5882 5881 5880 5879 5876 5875 5874 5872 5870 5868 5867 5867 5868 5870 5870
5896 5897 5897 5896 5896 5893 5894 5895 5894 5893 5892 5892 5893 5890 5888 5887 5886 5885 5883 5883 5883 5883 5883 5882 5881 5881 5882 5882 5882 5882 5883 5883 5883 5882 5880 5879 5877 5877 5876 5874 5872 5870 5868 5866 5865 5867 5868 5869 5866
5895 5896 5896 5896 5894 5892 5894 5892 5893 5891 5892 5893 5892 5891 5887 5886 5885 5885 5883 5883 5883 5883 5883 5882 5881 5881 5881 5881 5881 5881 5880 5879 5879 5878 5877 5876 5875 5874 5873 5872 5870 5868 5866 5864 5864 5865 5866 5866 5864
5894 5894 5894 5894 5893 5892 5891 5889 5891 5890 5891 5893 5893 5890 5886 5886 5885 5885 5885 5885 5884 5883 5881 5881 5880 5880 5879 5878 5878 5878 5878 5877 5876 5875 5875 5874 5873 5871 5870 5868 5866 5864 5862 5861 5862 5863 5864 5863 5861
5894 5895 5894 5891 5893 5891 5889 5888 5890 5892 5894 5895 5893 5890 5888 5889 5888 5888 5886 5886 5885 5883 5879 5878 5879 5878 5877 5876 5876 5875 5875 5874 5874 5873 5872 5871 5870 5869 5868 5866 5864 5861 5859 5858 5859 5861 5860 5858 5858
5894 5894 5892 5891 5891 5890 5890 5889 5888 5892 5895 5896 5894 5891 5888 5888 5887 5885 5884 5882 5880 5879 5877 5875 5876 5876 5877 5877 5875 5874 5873 5873 5872 5871 5870 5870 5869 5867 5865 5863 5861 5859 5856 5855 5857 5857 5856 5854 5854
5893 5893 5893 5891 5890 5892 5890 5889 5892 5894 5893 5893 5896 5892 5888 5885 5885 5883 5881 5880 5879 5876 5874 5873 5874 5875 5874 5874 5875 5875 5875 5873 5871 5871 5870 5868 5866 5864 5862 5860 5858 5856 5853 5851 5853 5853 5851 5851 5851
5892 5892 5893 5892 5889 5890 5889 5890 5891 5891 5890 5890 5891 5894 5890 5886 5881 5881 5879 5877 5876 5874 5873 5873 5873 5874 5874 5873 5874 5874 5874 5872 5872 5870 5868 5866 5864 5862 5859 5857 5854 5852 5851 5849 5847 5848 5848 5847 5847
5893 5893 5892 5893 5889 5890 5889 5889 5889 5890 5889 5887 5890 5892 5889 5885 5882 5879 5877 5879 5877 5875 5873 5872 5873 5874 5873 5872 5872 5872 5872 5873 5871 5868 5867 5865 5862 5859 5856 5853 5851 5848 5847 5847 5843 5843 5844 5843 5843
5893 5892 5891 5893 5891 5890 5887 5886 5888 5889 5887 5886 5888 5893 5889 5886 5883 5881 5879 5877 5873 5872 5873 5873 5874 5874 5874 5873 5872 5870 5870 5870 5869 5868 5866 5863 5859 5857 5854 5851 5848 5844 5842 5842 5841 5839 5839 5839 5840
5892 5892 5892 5894 5893 5889 5888 5888 5889 5887 5887 5886 5887 5890 5888 5886 5884 5882 5881 5877 5871 5871 5872 5873 5873 5874 5874 5873 5872 5871 5871 5869 5867 5866 5864 5861 5859 5855 5852 5849 5847 5842 5837 5837 5837 5836 5836 5835 5835
5892 5893 5894 5893 5892 5889 5887 5886 5886 5886 5886 5886 5887 5887 5887 5885 5884 5883 5883 5881 5875 5871 5871 5872 5872 5873 5874 5873 5873 5871 5871 5870 5867 5864 5861 5859 5857 5853 5849 5846 5843 5839 5834 5832 5831 5832 5833 5833 5832
5893 5895 5895 5891 5890 5889 5885 5883 5885 5886 5886 5885 5886 5886 5885 5885 5884 5882 5882 5879 5876 5874 5871 5872 5872 5872 5872 5871 5870 5870 5869 5868 5864 5861 5859 5857 5854 5851 5847 5843 5839 5835 5829 5826 5825 5827 5831 5830 5829
5892 5894 5892 5890 5890 5887 5887 5887 5886 5887 5887 5887 5887 5886 5883 5881 5883 5883 5879 5877 5874 5875 5873 5873 5872 5872 5872 5871 5870 5869 5867 5865 5861 5860 5857 5853 5850 5846 5843 5840 5835 5830 5824 5822 5821 5821 5825 5826 5826
5891 5891 5890 5890 5888 5888 5887 5888 5887 5888 5887 5886 5886 5884 5883 5882 5878 5879 5879 5877 5874 5873 5875 5871 5870 5870 5870 5869 5868 5867 5866 5862 5860 5857 5853 5850 5849 5846 5843 5838 5833 5827 5820 5819 5820 5819 5820 5821 5822
5888 5887 5888 5888 5888 5885 5885 5886 5886 5886 5885 5884 5883 5883 5881 5878 5874 5876 5876 5875 5872 5871 5870 5871 5871 5870 5868 5866 5865 5864 5862 5860 5858 5855 5849 5846 5846 5843 5840 5836 5831 5825 5820 5818 5817 5818 5817 5816 5816
5885 5886 5887 5887 5886 5884 5884 5884 5884 5883 5883 5884 5881 5878 5876 5873 5871 5870 5871 5872 5870 5868 5868 5869 5868 5867 5864 5861 5860 5860 5859 5858 5856 5853 5849 5847 5843 5841 5838 5834 5830 5826 5822 5819 5817 5815 5815 5813 5812
5884 5884 5884 5885 5884 5883 5882 5882 5881 5882 5883 5882 5880 5877 5875 5872 5870 5869 5869 5868 5868 5866 5865 5865 5863 5859 5859 5857 5857 5856 5855 5855 5853 5851 5848 5844 5841 5839 5836 5832 5829 5826 5822 5817 5815 5813 5811 5811 5810
5881 5881 5883 5884 5886 5883 5881 5882 5881 5878 5879 5880 5879 5878 5876 5873 5870 5871 5868 5868 5868 5866 5862 5862 5859 5857 5854 5855 5854 5851 5850 5850 5849 5848 5846 5843 5840 5838 5834 5831 5828 5824 5821 5817 5814 5813 5811 5810 5809
5879 5878 5880 5883 5883 5884 5884 5883 5881 5880 5878 5878 5878 5876 5874 5871 5870 5870 5869 5869 5867 5864 5861 5861 5858 5856 5856 5856 5854 5852 5850 5849 5848 5847 5844 5841 5838 5835 5832 5829 5826 5823 5820 5817 5814 5811 5810 5808 5808
5878 5878 5879 5881 5883 5883 5883 5885 5885 5883 5880 5878 5877 5877 5874 5871 5870 5869 5870 5870 5867 5864 5862 5860 5859 5857 5855 5854 5852 5851 5851 5848 5846 5844 5842 5839 5836 5832 5829 5827 5824 5821 5819 5816 5813 5810 5808 5806 5805
5878 5878 5879 5879 5880 5882 5881 5882 5882 5883 5879 5877 5876 5874 5873 5872 5870 5870 5871 5868 5866 5864 5862 5859 5857 5855 5853 5853 5852 5850 5848 5846 5844 5842 5839 5836 5833 5831 5828 5826 5823 5820 5817 5814 5811 5809 5806 5804 5801
5876 5877 5878 5878 5878 5879 5879 5879 5880 5879 5879 5876 5875 5875 5873 5871 5872 5870 5867 5866 5865 5863 5860 5858 5855 5854 5852 5851 5850 5848 5845 5843 5840 5838 5835 5833 5830 5827 5826 5824 5821 5818 5815 5812 5809 5806 5803 5800 5797
5874 5875 5876 5876 5876 5877 5875 5875 5877 5877 5876 5876 5874 5873 5871 5870 5868 5867 5866 5864 5860 5859 5857 5854 5852 5851 5849 5848 5846 5844 5842 5840 5837 5835 5832 5829 5826 5823 5821 5819 5817 5814 5811 5808 5805 5802 5798 5795 5792
5870 5871 5873 5873 5873 5874 5872 5872 5874 5874 5874 5873 5871 5869 5869 5869 5868 5865 5863 5861 5858 5854 5851 5850 5849 5848 5846 5844 5841 5840 5838 5836 5834 5831 5828 5825 5822 5819 5816 5813 5811 5809 5806 5803 5800 5797 5793 5790 5786
5866 5867 5869 5870 5869 5870 5870 5869 5870 5870 5871 5871 5869 5867 5866 5864 5863 5861 5859 5858 5856 5854 5851 5848 5846 5843 5841 5838 5835 5833 5830 5829 5827 5825 5822 5819 5817 5814 5811 5808 5805 5802 5799 5796 5794 5790 5787 5782 5779
5862 5865 5866 5866 5865 5865 5865 5863 5864 5867 5867 5867 5867 5865 5862 5860 5858 5856 5856 5855 5853 5852 5849 5845 5841 5837 5834 5833 5830 5827 5826 5823 5819 5816 5814 5811 5808 5806 5803 5800 5798 5795 5792 5789 5786 5783 5779 5774 5771
5861 5861 5861 5861 5862 5861 5860 5859 5859 5858 5858 5858 5858 5858 5857 5855 5853 5851 5848 5849 5849 5846 5843 5841 5837 5833 5830 5826 5823 5820 5817 5814 5811 5808 5805 5802 5799 5797 5794 5792 5789 5786 5783 5780 5777 5774 5770 5766 5762
5856 5856 5857 5858 5860 5858 5856 5856 5854 5853 5851 5849 5850 5849 5849 5849 5848 5845 5843 5841 5843 5841 5838 5835 5831 5829 5825 5821 5818 5812 5808 5805 5802 5799 5796 5794 5791 5788 5785 5783 5781 5778 5775 5771 5768 5764 5761 5757 5753
Wind_Speed
6 3 1 4 3 6 2 5 17 27 32 32 25 20 17 16 12 12 10 7 6 4 1 1 2 3 5 7 8 10 12 13 15 16 16 15 14 14 15 17 17 18 19 19 20 20 20 16 14
7 6 4 2 3 4 2 4 12 23 24 26 30 14 8 10 10 10 8 8 7 5 3 3 4 5 7 9 9 10 12 12 12 11 11 11 12 13 13 15 15 16 18 19 20 21 20 18 15
9 7 6 5 6 11 11 6 15 20 24 29 36 11 20 14 10 10 9 7 7 7 6 5 5 6 6 5 5 5 5 6 6 6 7 8 10 12 13 14 15 17 19 20 21 20 19 15 16
10 9 9 6 6 12 8 10 18 25 28 30 33 25 18 9 11 12 8 10 10 8 6 7 7 5 4 4 4 3 3 3 4 6 6 8 11 13 14 16 17 19 21 22 21 19 18 16 17
10 9 4 4 5 9 9 12 21 21 29 33 32 22 16 7 5 7 9 9 8 5 6 6 5 4 3 1 3 4 5 5 7 8 7 9 12 14 16 18 19 22 24 25 23 19 16 18 18
10 5 5 7 1 4 7 13 13 18 25 29 23 16 14 13 12 11 8 10 8 5 4 5 3 2 2 4 5 6 6 7 9 8 9 12 14 16 18 19 21 23 26 26 24 21 17 17 17
13 11 10 7 3 4 7 8 17 14 24 19 15 13 11 12 13 17 10 14 8 5 2 3 2 1 3 4 6 7 7 8 9 10 10 13 15 17 19 20 23 25 28 26 22 18 17 17 17
15 12 9 7 8 3 5 11 10 17 23 20 15 10 10 11 13 16 17 9 10 5 3 4 4 3 4 4 7 8 8 8 8 9 10 13 13 14 15 16 18 20 21 24 20 17 15 17 16
16 12 11 11 16 10 9 6 11 16 20 26 21 16 12 11 15 15 15 12 6 0 4 4 3 2 1 3 4 6 8 7 7 8 8 9 11 14 16 17 18 18 17 23 23 18 15 15 15
16 14 13 12 18 16 9 7 13 18 22 25 28 23 20 25 25 16 9 4 5 2 5 5 3 2 3 4 6 6 6 7 6 7 7 9 12 15 17 18 17 21 20 16 17 17 12 15 17
11 18 14 10 16 15 11 9 13 15 19 29 32 27 22 21 19 12 13 2 4 6 6 4 3 4 4 4 4 8 6 3 5 4 7 10 13 14 18 19 18 19 23 20 15 13 13 14 17
15 15 11 11 11 16 9 13 18 22 22 30 33 33 18 24 25 9 16 6 4 8 11 9 7 6 6 10 10 7 7 9 1 4 7 10 15 17 17 19 19 19 24 22 19 14 11 12 17
13 9 7 8 10 11 12 18 20 23 25 28 30 17 14 17 15 19 8 15 3 8 7 9 7 4 3 6 7 5 8 10 10 8 9 11 15 18 19 20 20 21 21 24 21 17 12 11 13
9 8 7 12 12 10 15 19 23 22 20 21 20 21 17 24 19 12 2 9 4 6 11 7 6 3 2 5 7 5 9 10 12 13 15 17 17 18 20 20 25 26 25 21 24 22 16 12 12
12 12 12 11 10 18 15 12 17 16 14 16 15 16 22 28 22 12 5 5 5 4 8 6 5 4 7 8 8 8 11 14 16 18 19 17 19 21 23 26 29 32 30 12 21 23 18 14 12
18 16 15 7 6 3 6 11 12 10 14 17 16 19 23 25 15 9 7 7 0 3 7 4 4 2 6 8 9 8 13 15 20 19 22 18 16 15 20 23 29 30 20 8 11 19 16 14 16
15 17 14 7 5 12 13 12 9 9 13 15 18 23 22 22 21 18 16 8 7 5 5 6 6 8 10 10 6 11 12 14 17 20 11 13 15 17 20 21 25 26 16 12 10 12 15 15 17
14 14 11 4 3 10 13 18 9 11 13 14 19 26 26 25 14 26 3 10 14 6 6 12 15 16 13 9 7 9 11 15 17 17 16 14 14 14 15 18 20 24 16 14 12 10 13 19 21
11 11 8 2 2 8 14 16 10 8 11 17 19 28 21 21 11 12 8 14 13 7 8 8 11 18 11 9 10 13 15 17 19 17 13 13 16 17 18 19 17 19 17 15 12 9 8 11 15
15 12 6 2 2 10 13 8 10 9 12 15 23 27 17 16 11 11 10 12 13 12 9 9 11 14 11 11 11 16 13 16 16 15 15 15 17 20 20 20 19 19 17 15 14 11 9 5 5
14 10 6 6 8 11 9 5 7 8 8 13 20 23 18 15 11 12 11 11 11 8 7 6 9 10 11 12 13 13 13 13 14 15 17 19 18 18 19 19 21 22 20 18 17 14 12 13 13
12 11 11 15 14 14 7 6 7 7 8 11 19 20 16 15 11 9 6 5 5 6 8 9 10 9 9 9 10 11 12 14 16 17 18 19 19 20 21 22 23 24 23 23 22 20 18 19 21
19 18 17 18 21 9 3 5 10 10 8 9 14 14 17 11 11 9 7 9 9 8 8 10 11 11 10 10 11 13 14 15 15 16 18 19 20 20 20 22 23 23 24 25 25 25 23 21 24
16 20 20 26 23 9 13 11 2 10 4 9 13 12 13 11 9 10 10 10 8 9 10 10 12 12 12 13 14 16 18 19 18 18 19 20 20 21 21 21 23 23 24 25 26 27 28 29 29
20 21 23 21 14 10 19 18 6 5 7 9 16 15 15 15 15 10 8 10 12 13 13 13 13 14 15 17 19 21 23 23 24 23 23 24 24 25 27 28 28 28 27 28 29 29 30 31 31
20 25 21 19 18 15 22 21 14 9 8 11 14 12 14 18 12 11 8 12 14 19 22 22 20 19 19 20 21 22 24 26 28 29 30 30 30 31 32 31 31 31 31 31 31 32 33 35 34
17 19 19 21 22 19 23 25 19 14 12 15 15 15 19 21 17 12 11 12 13 14 15 19 20 21 23 25 25 26 27 29 31 32 33 34 35 36 36 35 34 33 34 34 34 34 35 38 38
20 18 19 20 22 20 23 24 22 20 21 21 22 24 24 19 21 21 17 15 15 15 17 19 17 21 24 27 31 32 32 34 33 33 34 34 35 35 36 37 38 38 37 37 37 38 39 40 41
19 17 18 20 19 21 22 27 27 27 27 26 26 24 23 26 27 27 27 24 21 22 22 21 23 26 28 31 33 35 36 34 34 34 35 36 36 37 36 36 37 38 39 40 40 40 41 42 43
18 18 15 17 18 21 22 26 28 30 31 32 30 30 30 30 31 33 35 37 28 25 25 26 30 31 34 35 35 36 37 38 36 36 37 37 38 38 38 38 39 39 41 42 42 43 43 43 44
Wind_Direction
202 205 212 173 99 78 54 32 26 27 25 12 19 5 352 342 4 7 10 20 34 45 318 287 290 293 284 283 289 294 293 296 298 301 300 300 302 304 306 303 303 303 301 300 302 305 305 313 313
188 194 209 205 201 203 261 341 18 27 13 3 360 341 331 343 356 347 1 12 16 11 335 306 279 272 282 289 292 295 298 300 298 297 299 300 304 304 302 299 298 296 294 296 296 298 303 311 306
182 186 201 214 247 256 289 294 353 15 6 12 359 11 348 343 341 326 338 25 18 2 351 352 344 341 322 306 302 291 282 281 283 291 300 303 300 299 299 295 294 293 291 291 294 298 301 300 288
176 185 210 209 239 277 349 25 10 10 1 1 356 338 336 322 335 333 344 7 18 13 10 6 8 2 332 346 338 308 287 284 284 283 289 297 296 294 292 291 291 289 289 289 289 293 299 291 277
173 180 222 258 280 352 6 5 13 12 355 343 345 344 340 333 345 353 33 19 9 12 13 26 23 352 349 320 260 243 246 251 255 260 273 280 280 284 287 286 286 284 282 282 283 286 288 279 270
173 149 156 222 241 315 15 12 32 357 336 336 343 348 348 331 323 333 333 335 336 358 61 69 24 325 253 227 228 226 224 236 253 264 270 277 282 286 286 290 293 290 286 284 285 285 280 271 264
156 166 201 247 244 321 25 338 6 352 320 344 345 2 15 357 332 317 321 323 323 319 330 106 120 216 254 248 239 232 229 240 257 266 280 291 297 300 300 299 297 294 291 289 291 294 283 269 261
164 205 221 243 265 242 308 355 344 303 312 328 359 10 16 346 338 325 326 315 307 282 220 180 158 213 229 253 263 268 274 262 270 295 301 299 302 303 303 305 302 297 299 293 284 286 278 266 257
201 214 234 253 278 292 304 307 307 303 314 323 337 353 346 325 310 316 312 298 288 291 169 166 163 200 308 298 304 318 318 312 319 303 312 316 315 312 313 313 309 310 308 299 298 284 266 259 261
203 228 240 260 276 286 292 288 286 297 308 313 331 346 357 353 326 293 266 283 300 118 164 152 132 89 46 39 36 26 349 322 334 308 311 321 336 336 331 318 309 301 298 297 299 286 266 249 250
234 227 248 285 287 308 296 274 282 295 304 316 324 342 355 8 350 298 281 216 165 134 123 122 99 45 17 2 9 56 61 350 310 313 327 329 335 336 342 337 329 297 288 292 290 284 273 256 249
228 232 253 293 296 317 293 266 278 285 301 308 313 323 28 17 23 34 330 334 161 153 134 98 80 91 91 66 54 47 35 26 348 330 332 325 336 327 325 324 326 325 287 277 283 282 271 257 252
259 267 276 288 272 272 260 254 267 279 288 294 306 330 356 21 13 14 334 336 332 164 114 120 126 108 45 23 3 28 358 353 339 293 324 324 322 320 315 322 328 330 313 271 268 268 265 256 255
264 246 225 259 281 289 277 268 271 285 296 300 326 340 3 10 359 8 345 359 20 171 145 84 57 72 289 344 338 327 333 315 314 318 314 313 319 316 325 328 332 335 324 276 258 258 249 237 241
232 236 222 251 275 281 313 292 306 327 326 337 355 340 344 346 355 357 334 324 45 91 151 116 55 15 324 331 322 322 331 322 328 321 301 306 328 328 330 331 332 327 329 293 246 250 253 254 244
224 217 209 234 273 10 13 350 348 352 360 354 343 339 338 335 341 351 310 265 197 25 344 69 77 357 311 318 325 313 315 327 330 321 318 291 321 323 329 339 337 331 332 344 305 244 262 272 269
206 188 189 202 308 18 11 3 341 358 356 346 348 354 345 332 327 307 300 292 282 306 279 329 310 297 308 324 306 302 315 327 320 324 314 336 342 331 341 345 342 347 338 327 307 250 253 263 269
208 218 217 181 1 4 2 349 351 347 355 1 353 342 345 341 334 334 233 306 339 303 332 313 315 299 290 304 282 300 313 313 321 329 327 333 349 342 340 341 338 344 344 357 353 327 309 284 270
227 210 193 170 20 4 346 0 353 355 12 19 6 360 352 352 13 6 339 330 323 359 321 329 347 357 279 308 316 321 313 320 324 332 329 333 335 328 332 331 338 335 338 2 18 18 5 343 309
223 216 211 216 277 345 329 5 334 335 343 10 354 347 355 11 349 359 354 328 313 307 329 338 333 353 10 347 326 309 308 319 323 321 324 327 334 332 335 336 337 338 334 349 350 7 13 27 337
229 241 254 270 281 307 301 318 307 325 320 6 357 355 0 3 12 5 353 319 304 320 348 5 1 359 343 330 322 317 322 330 332 327 328 330 333 336 341 345 350 347 354 353 349 348 341 334 321
222 226 244 261 279 285 228 210 208 274 324 353 330 342 3 1 5 15 345 342 2 14 19 14 1 354 348 351 353 340 333 331 327 325 327 330 334 336 340 343 343 341 345 347 346 342 335 323 318
212 228 237 258 274 255 252 221 220 248 304 336 318 337 354 5 1 1 12 14 10 9 360 354 348 350 350 340 326 318 324 325 325 323 326 330 332 333 332 329 328 330 332 335 338 334 328 323 318
206 223 229 241 246 251 255 266 86 212 274 307 312 311 337 346 347 319 341 7 8 14 10 358 349 336 322 313 305 306 310 311 310 312 316 320 320 318 315 313 315 322 323 323 323 322 319 318 315
207 221 223 241 246 237 252 269 256 252 252 289 309 306 301 320 324 324 334 342 349 347 339 332 322 318 313 310 306 306 305 304 304 303 304 303 305 306 307 308 309 310 312 314 313 312 311 310 309
238 226 236 247 263 263 265 271 272 263 266 266 277 298 292 289 295 335 324 341 339 335 328 326 322 316 311 306 301 299 298 297 296 297 298 297 298 299 298 299 300 301 299 301 303 305 306 305 306
229 230 234 240 257 257 260 274 286 284 274 272 293 296 296 291 318 327 343 347 356 344 319 311 310 307 303 301 299 298 299 301 298 294 293 294 295 296 296 297 296 296 297 295 298 301 303 303 306
232 242 253 250 252 263 273 278 281 278 279 281 288 299 303 307 322 325 333 336 339 337 321 311 314 312 306 304 304 302 299 294 293 295 293 292 293 295 295 296 296 295 295 297 298 298 299 300 301
247 255 263 256 258 263 269 272 283 289 292 294 295 300 307 317 320 319 320 321 327 322 313 311 310 307 303 303 297 296 294 292 296 298 297 294 294 294 294 294 296 294 292 292 295 297 299 298 298
258 254 261 263 257 260 266 271 278 286 289 290 298 300 306 315 317 317 316 315 319 314 308 304 308 305 299 301 297 296 295 292 295 294 294 296 295 293 292 293 293 294 293 294 296 297 298 297 297